Ashland, MO

8:08 PM CST on February 09, 2016 (GMT -0600)
Columbia Regional

Weather History for KCOU - February, 2011

Change the Weather History Date:

Tuesday, February 1, 2011

  Actual Average Record
Temperature  
Mean Temperature 21 °F 31 °F  
Max Temperature 25 °F 40 °F 81 °F (1911)
Min Temperature 16 °F 22 °F -11 °F (1979)
Degree Days  
Heating Degree Days 44 34  
Month to date heating degree days 44 34  
Since 1 July heating degree days 3202 3123  
Cooling Degree Days 0 0  
Month to date cooling degree days 0 0  
Year to date cooling degree days 0 0  
Moisture  
Dew Point 17 °F    
Average Humidity 90    
Maximum Humidity 96    
Minimum Humidity 84    
Precipitation  
Precipitation 0.82 in 0.07 in 1.14 in (1968)
Month to date precipitation 0.82 0.07  
Year to date precipitation 1.65 1.99  
Snow  
Snow 17.50 in 0.20 in 17.50 in (2011)
Month to date snowfall 17.5 0.2  
Since 1 July snowfall 39.8 11.6  
Snow Depth T in    
Sea Level Pressure  
Sea Level Pressure 29.94 in    
Wind  
Wind Speed 19 mph (North)    
Max Wind Speed 33 mph    
Max Gust Speed 46 mph    
Visibility 2 miles    
Events Fog , Snow    
T = Trace of Precipitation, MM = Missing Value Source: NWS Daily Summary

Daily Weather History Graph

Daily Weather History Graph

Search for Another Location

Airport or City:

Trip Planner

Search our weather history database for the weather conditions in past years. The results will help you decide how hot, cold, wet, or windy it might be!

Date:

Astronomy

Feb. 01, 2011 Rise Set
Actual Time 7:15 AM CST 5:30 PM CST
Civil Twilight 6:47 AM CST 5:58 PM CST
Nautical Twilight 6:15 AM CST 6:30 PM CST
Astronomical Twilight 5:43 AM CST 7:01 PM CST
Moon 6:12 AM CST (2/1) 4:25 PM CST (2/1)
Length of Visible Light 11h 11m
Length of Day
10h 15m
Waning Crescent, 2% of the Moon is Illuminated
Feb 1
Waning Crescent
Feb 2
New
Feb 11
First Quarter
Feb 18
Full
Feb 24
Last Quarter

Hourly Weather History & Observations

Time (CST) Temp. Windchill Dew Point Humidity Pressure Visibility Wind Dir Wind Speed Gust Speed Precip Events Conditions
12:54 AM 24.1 °F 12.5 °F 23.0 °F 96% 30.10 in 6.0 mi North 12.7 mph - N/A   Overcast
1:54 AM 24.1 °F 12.0 °F 21.9 °F 91% 30.11 in 5.0 mi North 13.8 mph - N/A   Overcast
2:54 AM 23.0 °F 10.1 °F 21.0 °F 92% 30.10 in 5.0 mi North 15.0 mph - N/A   Overcast
3:54 AM 23.0 °F 12.4 °F 21.9 °F 96% 30.11 in 2.5 mi North 10.4 mph - N/A   Overcast
4:06 AM 21.2 °F 8.3 °F 21.2 °F 100% 30.08 in 4.0 mi North 13.8 mph - N/A   Overcast
4:54 AM 21.9 °F 8.2 °F 19.9 °F 92% 30.09 in 6.0 mi North 16.1 mph - N/A   Overcast
5:45 AM 21.2 °F 7.8 °F 19.4 °F 93% 30.06 in 8.0 mi North 15.0 mph 21.9 mph N/A   Overcast
5:54 AM 21.9 °F 7.8 °F 19.0 °F 89% 30.09 in 4.0 mi North 17.3 mph - 0.00 in Snow Light Snow
6:05 AM 21.2 °F 7.3 °F 19.4 °F 93% 30.06 in 2.0 mi NNE 16.1 mph 24.2 mph 0.00 in Snow Light Snow
6:16 AM 21.2 °F 6.0 °F 19.4 °F 93% 30.05 in 1.0 mi North 19.6 mph 24.2 mph 0.00 in Snow Light Snow
6:25 AM 21.2 °F 6.4 °F 19.4 °F 93% 30.04 in 0.5 mi NNE 18.4 mph - 0.01 in Fog , Snow Snow
6:41 AM 21.2 °F 6.8 °F 17.6 °F 86% 30.03 in 1.0 mi NNE 17.3 mph - 0.02 in Snow Light Snow
6:54 AM 21.0 °F 9.3 °F 19.0 °F 92% 30.06 in 1.2 mi NNE 11.5 mph - 0.02 in Snow Light Snow
7:06 AM 21.2 °F 6.8 °F 17.6 °F 86% 30.03 in 1.8 mi NNE 17.3 mph 24.2 mph 0.01 in Snow Light Snow
7:16 AM 21.2 °F 7.8 °F 17.6 °F 86% 30.00 in 1.5 mi NNE 15.0 mph - 0.01 in Snow Light Snow
7:29 AM 21.2 °F 6.4 °F 17.6 °F 86% 29.99 in 1.2 mi NNE 18.4 mph 26.5 mph 0.01 in Snow Light Snow
7:54 AM 21.0 °F 6.6 °F 18.0 °F 88% 30.01 in 1.2 mi NNE 17.3 mph - 0.03 in Snow Light Snow
8:13 AM 21.2 °F 6.8 °F 17.6 °F 86% 29.96 in 0.5 mi NNE 17.3 mph 24.2 mph 0.00 in Fog , Snow Snow
8:30 AM 21.2 °F 8.3 °F 17.6 °F 86% 29.97 in 0.2 mi NE 13.8 mph 21.9 mph N/A Fog , Snow Heavy Snow
8:39 AM 21.2 °F 7.8 °F 17.6 °F 86% 29.98 in 0.2 mi NE 15.0 mph 21.9 mph 0.03 in Fog , Snow Heavy Snow
8:54 AM 19.9 °F 4.3 °F 18.0 °F 92% 29.99 in 0.2 mi NNE 19.6 mph 25.3 mph 0.03 in Fog , Snow Heavy Snow
9:49 AM 19.4 °F 4.1 °F 17.6 °F 93% 29.95 in 0.2 mi NNE 18.4 mph 25.3 mph 0.06 in Fog , Snow Heavy Snow
9:54 AM 19.9 °F 3.9 °F 18.0 °F 92% 29.98 in 0.2 mi NNE 20.7 mph 26.5 mph 0.06 in Fog , Snow Heavy Snow
10:54 AM 19.9 °F 4.3 °F 18.0 °F 92% 29.98 in 0.2 mi NNE 19.6 mph 25.3 mph 0.12 in Fog , Snow Heavy Snow
11:54 AM 19.0 °F - 16.0 °F 88% 29.91 in 0.2 mi North - - 0.07 in Fog Light Freezing Fog
12:54 PM 19.9 °F 5.2 °F 17.1 °F 89% 29.84 in 0.2 mi NNE 17.3 mph 32.2 mph 0.07 in Fog Light Freezing Fog
1:54 PM 19.9 °F 3.2 °F 17.1 °F 89% 29.74 in 0.2 mi NNE 23.0 mph 34.5 mph 0.05 in Fog , Snow Snow
2:54 PM 19.9 °F 3.5 °F 16.0 °F 85% 29.71 in 0.2 mi NNE 21.9 mph 32.2 mph 0.05 in Fog , Snow Snow
3:35 PM 19.4 °F 5.0 °F 17.6 °F 93% 29.77 in 0.2 mi NW 16.1 mph - 0.09 in Fog , Snow Snow
3:54 PM 19.0 °F 4.0 °F 17.1 °F 92% 29.81 in 0.2 mi NW 17.3 mph - 0.13 in Fog , Snow Snow
4:54 PM 19.0 °F 3.6 °F 16.0 °F 88% 29.81 in 0.2 mi NW 18.4 mph - 0.11 in Fog , Snow Snow
5:44 PM 17.6 °F 0.5 °F 15.8 °F 93% 29.75 in 0.5 mi NNW 21.9 mph 27.6 mph N/A Fog , Snow Snow
5:54 PM 18.0 °F 0.9 °F 15.1 °F 88% 29.78 in 0.8 mi NNW 21.9 mph 29.9 mph 0.04 in Snow Light Snow
6:11 PM 17.6 °F 0.1 °F 15.8 °F 93% 29.75 in 1.0 mi NNW 23.0 mph 31.1 mph 0.01 in Snow Light Snow
6:18 PM 17.6 °F 0.5 °F 15.8 °F 93% 29.75 in 1.0 mi NNW 21.9 mph 33.4 mph 0.01 in Snow Light Snow
6:54 PM 18.0 °F 0.2 °F 15.1 °F 88% 29.81 in 1.2 mi NNW 24.2 mph 34.5 mph 0.01 in Snow Light Snow
7:05 PM 17.6 °F -1.0 °F 15.8 °F 93% 29.77 in 1.2 mi NNW 26.5 mph 35.7 mph 0.00 in Snow Light Snow
7:12 PM 17.6 °F -1.0 °F 14.0 °F 86% 29.78 in 1.2 mi NNW 26.5 mph 38.0 mph 0.00 in Snow Light Snow
7:54 PM 18.0 °F 0.9 °F 14.0 °F 84% 29.84 in 1.0 mi NNW 21.9 mph 35.7 mph 0.01 in Snow Light Snow
8:35 PM 17.6 °F -0.3 °F 14.0 °F 86% 29.84 in 0.8 mi NNW 24.2 mph 34.5 mph 0.00 in Snow Light Snow
8:46 PM 17.6 °F 0.1 °F 14.0 °F 86% 29.85 in 0.8 mi NNW 23.0 mph 33.4 mph 0.01 in Snow Light Snow
8:54 PM 17.1 °F -1.0 °F 14.0 °F 88% 29.89 in 0.8 mi NNW 24.2 mph 29.9 mph 0.01 in Snow Light Snow
9:01 PM 17.6 °F 0.1 °F 14.0 °F 86% 29.86 in 1.0 mi NNW 23.0 mph 32.2 mph 0.00 in Snow Light Snow
9:35 PM 17.6 °F 1.3 °F 14.0 °F 86% 29.90 in 1.2 mi NNW 19.6 mph 31.1 mph 0.00 in Snow Light Snow
9:54 PM 17.1 °F -1.4 °F 14.0 °F 88% 29.95 in 1.0 mi NNW 25.3 mph 33.4 mph 0.00 in Snow Light Snow
10:13 PM 17.6 °F -0.3 °F 14.0 °F 86% 29.93 in 0.8 mi NW 24.2 mph 31.1 mph 0.00 in Snow Light Snow
10:21 PM 17.6 °F -0.3 °F 14.0 °F 86% 29.93 in 1.0 mi NW 24.2 mph 38.0 mph 0.00 in Snow Light Snow
10:32 PM 17.6 °F 0.1 °F 14.0 °F 86% 29.94 in 1.0 mi NW 23.0 mph 31.1 mph 0.00 in Snow Light Snow
10:54 PM 17.6 °F 1.3 °F 14.0 °F 86% 29.96 in 1.2 mi NW 19.6 mph 26.5 mph N/A Snow Light Snow
11:40 PM 17.6 °F 1.3 °F 12.2 °F 79% 30.00 in 2.0 mi WNW 19.6 mph 25.3 mph 0.01 in Snow Light Snow
11:49 PM 17.6 °F 1.7 °F 12.2 °F 79% 30.01 in 1.8 mi NW 18.4 mph 26.5 mph 0.01 in Snow Light Snow
11:54 PM 17.1 °F 1.0 °F 12.9 °F 84% 30.05 in 1.8 mi NW 18.4 mph 25.3 mph 0.01 in Snow Light Snow